GW5883 Weather Reports


time (UTC)temp
C
wind
direction
speed
KPH
gust
KPH
rain 1hr
cm
rain 24hr
cm
rain mn
cm
humidity
%
barometer
mb
20260906003918 29 146 0.0 0.0 0.00 0.00 0.00 72 1014.3
20260906003413 30 147 0.0 0.0 0.00 0.00 0.00 71 1014.3
20260906002908 30 144 0.0 0.0 0.00 0.00 0.00 73 1014.4
20260906002408 30 145 0.0 0.0 0.00 0.00 0.00 71 1014.4
20260906001903 30 146 0.0 0.0 0.00 0.00 0.00 69 1014.3
20260906001359 30 146 0.0 0.0 0.00 0.00 0.00 68 1014.2
20260906000859 31 144 0.0 0.0 0.00 0.00 0.00 68 1014.2
20260906000359 31 143 0.0 0.0 0.00 0.00 0.00 66 1014.2
20260905235855 31 144 0.0 0.0 0.00 0.00 0.00 67 1014.0
20260905235349 32 144 0.0 0.0 0.00 0.00 0.00 64 1014.2
20260905234844 32 144 0.0 0.0 0.00 0.00 0.00 63 1014.3
20260905234339 32 142 0.0 0.0 0.00 0.00 0.00 62 1014.1
20260905233834 33 145 0.0 0.0 0.00 0.00 0.00 59 1014.3
20260905233329 33 145 0.0 0.0 0.00 0.00 0.00 59 1014.4
20260905232828 33 147 0.0 0.0 0.00 0.00 0.00 59 1014.3
20260905232325 34 147 0.0 0.0 0.00 0.00 0.00 56 1014.3
20260905231820 34 141 0.0 0.0 0.00 0.00 0.00 55 1014.2
20260905231315 35 141 0.0 0.0 0.00 0.00 0.00 52 1014.1
20260905230812 35 150 0.0 0.0 0.00 0.00 0.00 50 1014.1
20260905230309 35 145 0.0 0.0 0.00 0.00 0.00 50 1014.1
20260905225809 35 143 0.0 0.0 0.00 0.00 0.00 46 1014.1
20260905225306 36 153 0.0 0.0 0.00 0.00 0.00 47 1014.1
20260905224803 36 144 0.0 0.0 0.00 0.00 0.00 46 1013.9
20260905224259 36 150 0.0 0.0 0.00 0.00 0.00 47 1014.0
20260905223755 36 111 0.0 1.6 0.00 0.00 0.00 45 1014.2
20260905223252 36 150 0.0 0.0 0.00 0.00 0.00 45 1014.0
20260905222747 36 120 0.0 0.0 0.00 0.00 0.00 45 1014.1
20260905222246 36 116 0.0 0.0 0.00 0.00 0.00 44 1013.9
20260905221742 36 134 1.6 1.6 0.00 0.00 0.00 44 1014.2
20260905221239 36 110 1.6 1.6 0.00 0.00 0.00 43 1014.3
20260905220734 36 112 1.6 1.6 0.00 0.00 0.00 43 1014.0
20260905220230 37 114 0.0 1.6 0.00 0.00 0.00 42 1014.2
20260905215729 37 158 0.0 0.0 0.00 0.00 0.00 42 1014.0
20260905215225 37 138 0.0 0.0 0.00 0.00 0.00 42 1014.0
20260905214721 37 172 1.6 1.6 0.00 0.00 0.00 42 1014.1
20260905214216 37 141 0.0 0.0 0.00 0.00 0.00 43 1014.2
20260905213712 37 143 0.0 0.0 0.00 0.00 0.00 44 1014.2
20260905213208 37 168 0.0 1.6 0.00 0.00 0.00 45 1014.4
20260905212702 37 147 0.0 0.0 0.00 0.00 0.00 44 1014.3
20260905212201 37 135 0.0 0.0 0.00 0.00 0.00 44 1014.2
20260905211656 37 133 0.0 0.0 0.00 0.00 0.00 44 1014.2
20260905211151 37 334 3.2 3.2 0.00 0.00 0.00 43 1014.2
20260905210649 37 52 3.2 3.2 0.00 0.00 0.00 43 1014.4
20260905210148 37 151 0.0 1.6 0.00 0.00 0.00 43 1014.4
20260905205647 37 139 1.6 3.2 0.00 0.00 0.00 42 1014.4
20260905205141 37 103 0.0 0.0 0.00 0.00 0.00 42 1014.4
20260905204640 37 89 1.6 3.2 0.00 0.00 0.00 40 1014.6
20260905204137 37 150 0.0 0.0 0.00 0.00 0.00 41 1014.5
20260905203636 37 151 0.0 0.0 0.00 0.00 0.00 40 1014.6
20260905203132 37 143 0.0 0.0 0.00 0.00 0.00 41 1014.8
20260905202627 37 178 0.0 1.6 0.00 0.00 0.00 42 1015.0
20260905202123 38 12 3.2 4.8 0.00 0.00 0.00 40 1015.0
20260905201618 38 161 0.0 0.0 0.00 0.00 0.00 42 1015.1
20260905201117 38 131 1.6 1.6 0.00 0.00 0.00 40 1015.1
20260905200613 38 44 3.2 3.2 0.00 0.00 0.00 39 1015.3
20260905200109 38 142 0.0 0.0 0.00 0.00 0.00 40 1015.0
20260905195602 38 152 0.0 1.6 0.00 0.00 0.00 40 1015.5
20260905195057 37 150 0.0 0.0 0.00 0.00 0.00 40 1015.2
20260905194557 37 125 3.2 3.2 0.00 0.00 0.00 39 1015.3
20260905194056 37 134 0.0 1.6 0.00 0.00 0.00 41 1015.3
20260905193551 37 216 3.2 4.8 0.00 0.00 0.00 42 1015.5
20260905193046 38 146 3.2 3.2 0.00 0.00 0.00 41 1015.7
20260905192542 37 105 0.0 0.0 0.00 0.00 0.00 43 1015.7
20260905192038 36 160 0.0 0.0 0.00 0.00 0.00 45 1015.9
20260905191536 36 129 0.0 0.0 0.00 0.00 0.00 43 1015.8
20260905191035 37 180 1.6 1.6 0.00 0.00 0.00 43 1015.8
20260905190534 37 76 1.6 1.6 0.00 0.00 0.00 44 1015.8
20260905190033 37 178 3.2 3.2 0.00 0.00 0.00 42 1015.7
20260905185533 38 197 1.6 1.6 0.00 0.00 0.00 41 1015.9
20260905185033 40 117 1.6 3.2 0.00 0.00 0.00 39 1015.9
20260905184533 40 116 0.0 1.6 0.00 0.00 0.00 39 1016.0
20260905184032 39 39 1.6 3.2 0.00 0.00 0.00 39 1016.2
20260905183531 38 132 1.6 3.2 0.00 0.00 0.00 40 1016.3
20260905183027 38 189 3.2 3.2 0.00 0.00 0.00 40 1016.4
20260905182521 38 148 0.0 1.6 0.00 0.00 0.00 40 1016.4
20260905182021 38 150 3.2 3.2 0.00 0.00 0.00 40 1016.5
20260905181516 37 168 1.6 3.2 0.00 0.00 0.00 42 1016.4
20260905181015 37 146 1.6 1.6 0.00 0.00 0.00 42 1016.9
20260905180510 37 187 0.0 1.6 0.00 0.00 0.00 41 1016.7
20260905180005 37 161 0.0 0.0 0.00 0.00 0.00 45 1016.7
20260905175504 37 73 1.6 3.2 0.00 0.00 0.00 43 1017.0
20260905175000 37 233 1.6 3.2 0.00 0.00 0.00 42 1016.9
20260905174455 38 144 1.6 1.6 0.00 0.00 0.00 42 1017.2
20260905173951 38 169 0.0 0.0 0.00 0.00 0.00 41 1017.1
20260905173447 38 130 0.0 0.0 0.00 0.00 0.00 42 1017.2
20260905172942 38 178 1.6 3.2 0.00 0.00 0.00 40 1017.1
20260905172440 38 348 3.2 3.2 0.00 0.00 0.00 42 1017.2
20260905171936 37 177 1.6 1.6 0.00 0.00 0.00 42 1017.2
20260905171432 37 323 1.6 3.2 0.00 0.00 0.00 44 1017.0
20260905170928 38 207 1.6 1.6 0.00 0.00 0.00 43 1017.2
20260905170424 38 27 1.6 3.2 0.00 0.00 0.00 41 1017.4
20260905165924 38 135 0.0 0.0 0.00 0.00 0.00 43 1017.2
20260905165419 37 155 0.0 0.0 0.00 0.00 0.00 43 1017.7
20260905164915 37 57 0.0 1.6 0.00 0.00 0.00 44 1017.6
20260905164415 36 142 0.0 1.6 0.00 0.00 0.00 46 1017.6
20260905163915 36 142 0.0 0.0 0.00 0.00 0.00 48 1017.7
20260905163412 36 201 4.8 4.8 0.00 0.00 0.00 46 1017.5
20260905162908 36 90 1.6 1.6 0.00 0.00 0.00 47 1017.6
20260905162402 36 132 0.0 1.6 0.00 0.00 0.00 48 1017.8
20260905161857 36 129 1.6 1.6 0.00 0.00 0.00 47 1017.6
20260905161356 36 16 3.2 3.2 0.00 0.00 0.00 48 1017.8
20260905160855 36 139 0.0 1.6 0.00 0.00 0.00 51 1017.8
20260905160354 35 82 0.0 1.6 0.00 0.00 0.00 49 1017.8
20260905155849 35 134 0.0 0.0 0.00 0.00 0.00 54 1017.9
20260905155348 35 20 3.2 3.2 0.00 0.00 0.00 52 1017.8
20260905154847 35 16 3.2 4.8 0.00 0.00 0.00 54 1017.9
20260905154343 33 76 1.6 1.6 0.00 0.00 0.00 56 1017.9
20260905153838 33 129 0.0 0.0 0.00 0.00 0.00 58 1017.8
20260905153335 33 119 1.6 1.6 0.00 0.00 0.00 55 1018.2
20260905152834 33 62 1.6 1.6 0.00 0.00 0.00 56 1017.9
20260905152334 33 132 1.6 1.6 0.00 0.00 0.00 57 1018.3
20260905151829 33 120 0.0 1.6 0.00 0.00 0.00 57 1018.3
20260905151325 33 141 0.0 0.0 0.00 0.00 0.00 61 1018.1
20260905150824 33 141 1.6 1.6 0.00 0.00 0.00 60 1018.3
20260905150319 33 137 0.0 1.6 0.00 0.00 0.00 60 1018.2
20260905145816 32 143 0.0 0.0 0.00 0.00 0.00 62 1018.2
20260905145310 31 135 0.0 0.0 0.00 0.00 0.00 63 1018.2
20260905144809 31 131 0.0 0.0 0.00 0.00 0.00 69 1018.2
20260905144305 31 136 0.0 0.0 0.00 0.00 0.00 69 1018.4
20260905143804 31 134 0.0 0.0 0.00 0.00 0.00 68 1018.4
20260905143258 31 145 0.0 0.0 0.00 0.00 0.00 70 1018.3
20260905142756 31 157 0.0 1.6 0.00 0.00 0.00 70 1018.5
20260905142251 30 151 0.0 1.6 0.00 0.00 0.00 71 1018.3
20260905141747 30 140 0.0 0.0 0.00 0.00 0.00 74 1018.3
20260905141244 29 152 0.0 0.0 0.00 0.00 0.00 75 1018.4
20260905140739 28 142 0.0 0.0 0.00 0.00 0.00 78 1018.4
20260905140239 28 138 0.0 0.0 0.00 0.00 0.00 78 1018.5
20260905135737 27 139 0.0 0.0 0.00 0.00 0.00 82 1018.5
20260905135234 27 139 0.0 0.0 0.00 0.00 0.00 85 1018.4
20260905134733 27 141 0.0 0.0 0.00 0.00 0.00 86 1018.3
20260905134232 26 142 0.0 0.0 0.00 0.00 0.00 87 1018.4
20260905133727 26 142 0.0 0.0 0.00 0.00 0.00 89 1018.4
20260905133223 26 141 0.0 0.0 0.00 0.00 0.00 89 1018.5
20260905132721 25 142 0.0 0.0 0.00 0.00 0.00 90 1018.4
20260905132217 25 142 0.0 0.0 0.00 0.00 0.00 90 1018.3
20260905131712 25 143 0.0 0.0 0.00 0.00 0.00 91 1018.4
20260905131208 25 142 0.0 0.0 0.00 0.00 0.00 91 1018.3
20260905130707 24 143 0.0 0.0 0.00 0.00 0.00 92 1018.3
20260905130202 24 143 0.0 0.0 0.00 0.00 0.00 93 1018.2
20260905125701 24 143 0.0 0.0 0.00 0.00 0.00 94 1018.5
20260905125157 23 144 0.0 0.0 0.00 0.00 0.00 95 1018.3
20260905124653 23 144 0.0 0.0 0.00 0.00 0.00 95 1018.4
20260905124149 23 144 0.0 0.0 0.00 0.00 0.00 95 1018.3
20260905123644 23 144 0.0 0.0 0.00 0.00 0.00 96 1018.3
20260905123142 23 144 0.0 0.0 0.00 0.00 0.00 96 1018.3
20260905122641 23 144 0.0 0.0 0.00 0.00 0.00 96 1018.1
20260905122136 23 144 0.0 0.0 0.00 0.00 0.00 97 1018.3
20260905121630 22 144 0.0 0.0 0.00 0.00 0.00 97 1018.4
20260905121126 22 144 0.0 0.0 0.00 0.00 0.00 97 1018.3
20260905120625 22 144 0.0 0.0 0.00 0.00 0.00 97 1018.0
20260905120120 22 145 0.0 0.0 0.00 0.00 0.00 97 1018.1
20260905115619 22 145 0.0 0.0 0.00 0.00 0.00 97 1018.0
20260905115114 22 145 0.0 0.0 0.00 0.00 0.00 97 1018.0
20260905114614 22 143 0.0 0.0 0.00 0.00 0.00 97 1018.0
20260905114113 22 144 0.0 0.0 0.00 0.00 0.00 97 1018.0
20260905113608 22 144 0.0 0.0 0.00 0.00 0.00 97 1017.8
20260905113103 22 144 0.0 0.0 0.00 0.00 0.00 96 1017.8
20260905112558 22 143 0.0 0.0 0.00 0.00 0.00 96 1017.7
20260905112054 22 142 0.0 0.0 0.00 0.00 0.00 96 1017.7
20260905111548 22 142 0.0 0.0 0.00 0.00 0.00 96 1017.7
20260905111048 22 140 0.0 0.0 0.00 0.00 0.00 96 1017.6
20260905110547 22 141 0.0 0.0 0.00 0.00 0.00 96 1017.6
20260905110043 22 143 0.0 0.0 0.00 0.00 0.00 96 1017.6
20260905105542 22 143 0.0 0.0 0.00 0.00 0.00 96 1017.5
20260905105041 22 144 0.0 0.0 0.00 0.00 0.00 96 1017.4
20260905104537 22 144 0.0 0.0 0.00 0.00 0.00 96 1017.5
20260905104037 22 144 0.0 0.0 0.00 0.00 0.00 96 1017.4
20260905103532 22 143 0.0 0.0 0.00 0.00 0.00 96 1017.4
20260905103028 22 143 0.0 0.0 0.00 0.00 0.00 96 1017.4
20260905102524 22 140 0.0 0.0 0.00 0.00 0.00 96 1017.2
20260905102020 22 143 0.0 0.0 0.00 0.00 0.00 96 1017.2
20260905101519 22 143 0.0 0.0 0.00 0.00 0.00 96 1017.2
20260905101017 22 143 0.0 0.0 0.00 0.00 0.00 96 1017.3
20260905100514 22 142 0.0 0.0 0.00 0.00 0.00 95 1017.2
20260905100013 22 143 0.0 0.0 0.00 0.00 0.00 95 1017.4
20260905095508 22 142 0.0 0.0 0.00 0.00 0.00 95 1017.2
20260905095003 22 143 0.0 0.0 0.00 0.00 0.00 95 1017.2
20260905094458 22 143 0.0 0.0 0.00 0.00 0.00 95 1017.1
20260905093957 22 144 0.0 0.0 0.00 0.00 0.00 95 1017.1
20260905093452 22 144 0.0 0.0 0.00 0.00 0.00 95 1017.1
20260905092948 22 144 0.0 0.0 0.00 0.00 0.00 95 1016.7
20260905092444 22 144 0.0 0.0 0.00 0.00 0.00 95 1017.0
20260905091939 22 144 0.0 0.0 0.00 0.00 0.00 95 1016.6
20260905091438 22 144 0.0 0.0 0.00 0.00 0.00 95 1016.7
20260905090938 22 145 0.0 0.0 0.00 0.00 0.00 95 1016.9
20260905090433 22 145 0.0 0.0 0.00 0.00 0.00 95 1016.6
20260905085932 22 145 0.0 0.0 0.00 0.00 0.00 95 1016.9
20260905085432 22 145 0.0 0.0 0.00 0.00 0.00 95 1016.9
20260905084928 22 144 0.0 0.0 0.00 0.00 0.00 95 1016.6
20260905084427 22 143 0.0 0.0 0.00 0.00 0.00 95 1016.9
20260905083922 22 144 0.0 0.0 0.00 0.00 0.00 94 1017.1
20260905083418 22 144 0.0 0.0 0.00 0.00 0.00 94 1016.9
20260905082913 22 144 0.0 0.0 0.00 0.00 0.00 94 1017.0
20260905082409 22 144 0.0 0.0 0.00 0.00 0.00 94 1016.7
20260905081909 22 144 0.0 0.0 0.00 0.00 0.00 94 1017.1
20260905081404 22 144 0.0 0.0 0.00 0.00 0.00 94 1017.2
20260905080903 22 144 0.0 0.0 0.00 0.00 0.00 94 1017.1
20260905080358 22 145 0.0 0.0 0.00 0.00 0.00 94 1017.1
20260905075857 22 144 0.0 0.0 0.00 0.00 0.00 94 1017.1
20260905075357 22 143 0.0 0.0 0.00 0.00 0.00 93 1017.1
20260905074856 23 143 0.0 0.0 0.00 0.00 0.00 93 1017.0
20260905074352 23 143 0.0 0.0 0.00 0.00 0.00 93 1017.0
20260905073847 23 143 0.0 0.0 0.00 0.00 0.00 93 1017.0
20260905073343 23 143 0.0 0.0 0.00 0.00 0.00 93 1017.1
20260905072837 23 143 0.0 0.0 0.00 0.00 0.00 93 1017.0
20260905072332 23 142 0.0 0.0 0.00 0.00 0.00 93 1017.0
20260905071829 23 142 0.0 0.0 0.00 0.00 0.00 92 1017.1
20260905071320 23 143 0.0 0.0 0.00 0.00 0.00 92 1017.1
20260905070819 23 142 0.0 0.0 0.00 0.00 0.00 92 1017.3
20260905070316 23 143 0.0 0.0 0.00 0.00 0.00 92 1017.1
20260905065814 23 143 0.0 0.0 0.00 0.00 0.00 92 1017.4
20260905065313 23 144 0.0 0.0 0.00 0.00 0.00 92 1017.2
20260905064809 23 144 0.0 0.0 0.00 0.00 0.00 92 1017.2
20260905064304 23 142 0.0 0.0 0.00 0.00 0.00 92 1017.3
20260905063802 23 142 0.0 0.0 0.00 0.00 0.00 91 1017.5
20260905063259 23 142 0.0 0.0 0.00 0.00 0.00 91 1017.5
20260905062755 23 142 0.0 0.0 0.00 0.00 0.00 91 1017.3
20260905062254 23 142 0.0 0.0 0.00 0.00 0.00 91 1017.4
20260905061749 23 142 0.0 0.0 0.00 0.00 0.00 91 1017.4
20260905061244 23 143 0.0 0.0 0.00 0.00 0.00 91 1017.5
20260905060744 23 143 0.0 0.0 0.00 0.00 0.00 91 1017.4
20260905060241 23 143 0.0 0.0 0.00 0.00 0.00 91 1017.3
20260905055739 23 143 0.0 0.0 0.00 0.00 0.00 91 1017.4
20260905055235 23 141 0.0 0.0 0.00 0.00 0.00 90 1017.3
20260905054729 23 143 0.0 0.0 0.00 0.00 0.00 90 1017.4
20260905054226 23 143 0.0 0.0 0.00 0.00 0.00 90 1017.4
20260905053725 23 143 0.0 0.0 0.00 0.00 0.00 90 1017.5
20260905053221 23 142 0.0 0.0 0.00 0.00 0.00 90 1017.4
20260905052720 23 136 0.0 0.0 0.00 0.00 0.00 90 1017.4
20260905052215 23 122 0.0 0.0 0.00 0.00 0.00 90 1017.3
20260905051715 23 146 0.0 0.0 0.00 0.00 0.00 88 1017.3
20260905051212 23 145 0.0 0.0 0.00 0.00 0.00 89 1017.3
20260905050708 24 144 0.0 0.0 0.00 0.00 0.00 89 1017.4
20260905050204 24 144 0.0 0.0 0.00 0.00 0.00 88 1017.3
20260905045703 24 146 0.0 0.0 0.00 0.00 0.00 88 1017.4
20260905045159 24 144 0.0 0.0 0.00 0.00 0.00 88 1017.3
20260905044654 24 143 0.0 0.0 0.00 0.00 0.00 89 1017.2
20260905044149 24 145 0.0 0.0 0.00 0.00 0.00 89 1017.3
20260905043648 24 146 0.0 0.0 0.00 0.00 0.00 89 1017.5
20260905043143 24 147 0.0 0.0 0.00 0.00 0.00 89 1017.6
20260905042642 24 146 0.0 0.0 0.00 0.00 0.00 89 1017.7
20260905042137 24 148 0.0 0.0 0.00 0.00 0.00 89 1017.7
20260905041633 24 146 0.0 0.0 0.00 0.00 0.00 88 1017.8
20260905041129 25 144 0.0 0.0 0.00 0.00 0.00 89 1017.6
20260905040628 25 149 0.0 0.0 0.00 0.00 0.00 89 1017.8
20260905040127 25 146 0.0 0.0 0.00 0.00 0.00 89 1017.6
20260905035622 25 143 0.0 0.0 0.00 0.00 0.00 89 1017.8
20260905035119 25 148 0.0 0.0 0.00 0.00 0.00 88 1017.7
20260905034615 25 148 0.0 0.0 0.00 0.00 0.00 88 1017.8
20260905034114 25 146 0.0 0.0 0.00 0.00 0.00 88 1017.9
20260905033613 25 149 0.0 0.0 0.00 0.00 0.00 88 1017.9
20260905033109 25 144 0.0 0.0 0.00 0.00 0.00 88 1017.9
20260905032609 25 145 0.0 0.0 0.00 0.00 0.00 88 1018.2
20260905032109 25 148 0.0 0.0 0.00 0.00 0.00 87 1017.9
20260905031605 25 137 0.0 0.0 0.00 0.00 0.00 87 1018.1
20260905031105 25 148 0.0 0.0 0.00 0.00 0.00 87 1018.0
20260905030600 25 144 0.0 0.0 0.00 0.00 0.00 87 1018.1
20260905030055 25 139 0.0 0.0 0.00 0.00 0.00 87 1018.1
20260905025550 25 146 0.0 0.0 0.00 0.00 0.00 87 1018.1
20260905025046 25 146 0.0 0.0 0.00 0.00 0.00 86 1017.9
20260905024542 26 125 0.0 0.0 0.00 0.00 0.00 87 1018.1
20260905024037 26 147 0.0 0.0 0.00 0.00 0.00 85 1017.9
20260905023532 26 149 0.0 0.0 0.00 0.00 0.00 87 1017.9
20260905023033 26 146 0.0 0.0 0.00 0.00 0.00 87 1018.0
20260905022532 26 146 0.0 0.0 0.00 0.00 0.00 87 1018.1
20260905022028 26 150 0.0 0.0 0.00 0.00 0.00 86 1017.9
20260905021527 26 147 0.0 0.0 0.00 0.00 0.00 86 1017.8
20260905021022 26 147 0.0 0.0 0.00 0.00 0.00 86 1017.9
20260905020522 26 148 0.0 0.0 0.00 0.00 0.00 87 1017.9
20260905020018 26 150 0.0 0.0 0.00 0.00 0.00 85 1017.9
20260905015515 26 147 0.0 0.0 0.00 0.00 0.00 84 1017.6
20260905015015 27 146 0.0 0.0 0.00 0.00 0.00 86 1017.6
20260905014510 27 149 0.0 0.0 0.00 0.00 0.00 85 1017.6
20260905014005 27 145 0.0 0.0 0.00 0.00 0.00 84 1017.6
20260905013502 27 146 0.0 0.0 0.00 0.00 0.00 83 1017.5
20260905012957 27 145 0.0 0.0 0.00 0.00 0.00 83 1017.2
20260905012451 27 146 0.0 0.0 0.00 0.00 0.00 83 1017.6
20260905011948 27 146 0.0 0.0 0.00 0.00 0.00 83 1017.4
20260905011444 27 147 0.0 0.0 0.00 0.00 0.00 82 1017.6
20260905010939 27 147 0.0 0.0 0.00 0.00 0.00 81 1017.5
20260905010434 27 139 0.0 0.0 0.00 0.00 0.00 83 1017.4
20260905005930 28 146 0.0 0.0 0.00 0.00 0.00 83 1017.5
20260905005426 28 148 0.0 0.0 0.00 0.00 0.00 82 1017.4
20260905004926 28 147 0.0 0.0 0.00 0.00 0.00 81 1017.2
20260905004421 28 146 0.0 0.0 0.00 0.00 0.00 81 1017.4